Location: Newark
(36.0797°N, 3.9744°E)
Time: 06:31:23
(UTC+00:00)

Vanguard 2 - Pass Details

Date: 09 December 2019
Orbit: 553 x 2938 km, 32.9° (Epoch: 27 January)

Event Time Altitude Azimuth Distance (km) Brightness Sun altitude
Exits shadow 23:50:29 11° 83° (E) 5,691 11.9 -76.4°
Drops below altitude 10° 23:50:54 10° 82° (E) 5,771 11.9 -76.4°
Sets 23:55:48 0° 76° (ENE) 6,746 12.4 -76.1°
